Location: 22
(39.7117°N, 89.5929°W)
Time: 06:07:48
(UTC-05:00)

A-11 Canister half - Pass Details

Date: 31 January 2023
Orbit: 1526 x 1682 km, 47.3° (Epoch: 01 April)

Event Time Altitude Azimuth Distance (km) Brightness Sun altitude
Rises 05:45:52 0° 222° (SW) 4,670 11.2 -15.9°
Reaches altitude 10° 05:48:56 10° 219° (SW) 3,685 10.7 -15.3°
Maximum altitude 05:58:00 62° 141° (SE) 1,690 9.4 -13.6°
Drops below altitude 10° 06:07:12 10° 64° (ENE) 3,736 11.8 -11.9°
Sets 06:10:20 0° 61° (ENE) 4,738 12.4 -11.3°
